GFSNE_500_rhum_147.txt.gz
RH
43 47 47 45 45 45 44 40 39 38 38 36 30 26 23 22 19 15 14 15 16 12 10 10 9 7 7 8 12 14 16 19 26 32 28 26 23 22
51 49 50 48 46 44 42 42 43 39 36 35 30 26 21 18 18 19 18 14 12 13 10 7 6 6 6 7 9 12 13 15 18 25 30 27 25 25
56 56 44 44 45 48 49 48 45 42 42 35 30 25 24 23 20 19 15 14 11 8 7 5 5 6 9 12 18 16 17 14 14 18 26 27 23 28
60 58 52 52 56 56 56 53 51 51 48 37 24 25 24 22 14 16 14 12 11 9 6 4 5 7 10 16 26 32 30 33 34 23 20 24 28 30
65 61 56 58 66 67 64 63 61 55 41 31 27 24 22 11 14 16 12 12 10 7 4 3 6 12 18 27 33 42 52 48 46 51 48 37 36 37
64 60 70 73 72 67 65 64 57 45 35 30 28 20 12 13 15 13 11 12 7 5 3 4 6 38 56 47 69 78 73 70 70 72 73 64 58 51
71 74 74 73 70 70 66 61 47 36 34 28 18 14 16 15 12 9 12 10 7 4 3 5 9 52 54 70 64 90 84 83 82 75 71 72 70 80
81 82 80 79 80 73 58 43 39 35 24 18 19 19 16 13 11 11 12 9 6 3 4 12 15 24 38 41 55 90 74 67 96 100 82 76 77 87
86 86 85 83 69 51 47 44 38 28 24 24 21 17 12 13 13 12 10 8 5 3 3 6 8 16 13 20 18 72 85 65 80 93 97 98 99 99
93 98 95 76 59 61 61 56 51 35 25 22 14 11 10 11 13 11 9 7 4 3 4 8 60 75 75 82 87 78 68 81 98 94 94 100 100 100
100 100 100 98 98 96 93 93 69 32 29 21 15 12 10 9 10 10 8 6 4 4 5 40 78 74 68 81 88 88 86 90 97 100 100 100 100 100
94 100 100 100 100 100 91 56 35 32 27 22 15 11 10 7 9 9 7 6 4 4 26 64 82 88 88 100 93 85 87 90 96 100 100 100 100 100
95 92 88 61 46 42 34 30 24 20 18 15 12 10 6 6 8 8 6 5 4 4 25 66 97 96 87 94 100 92 85 83 90 97 100 100 100 100
28 21 19 18 16 15 14 13 12 12 12 10 9 7 7 7 8 6 6 5 4 4 21 73 89 94 86 99 100 98 82 79 83 91 94 95 87 64
15 13 11 10 10 10 9 8 8 7 7 6 6 6 8 8 8 6 6 5 4 5 14 66 79 86 93 100 100 100 95 79 77 78 74 58 38 28
10 10 9 9 8 6 5 4 4 4 5 6 6 6 8 8 7 7 6 5 5 12 23 52 74 84 93 100 100 100 94 90 74 58 38 23 20 21
7 6 5 3 3 3 4 5 6 7 14 22 10 8 8 8 8 8 6 6 6 38 80 79 84 86 94 100 100 100 92 68 31 23 20 22 29 32
4 5 6 8 10 10 10 11 11 10 15 97 19 9 9 11 10 8 8 8 36 100 100 100 87 86 91 100 99 66 32 24 21 25 38 37 48 50
12 13 14 13 12 15 16 21 42 18 18 97 19 12 15 14 10 10 14 40 100 100 100 99 89 81 92 95 45 23 23 28 38 59 59 61 57 55
29 32 25 28 21 24 34 37 100 34 23 30 19 21 27 22 15 20 50 100 100 100 100 95 88 87 73 24 25 41 25 36 39 44 55 53 51 49
86 86 83 66 43 34 88 58 100 100 45 31 28 36 73 36 36 32 100 100 100 100 100 94 84 40 19 20 31 53 51 28 25 25 28 32 34 35
88 93 100 97 74 42 97 100 100 98 62 33 72 78 66 54 37 97 100 100 100 100 100 68 23 24 25 21 23 26 31 33 32 30 33 40 45 47
100 96 97 100 78 39 90 100 89 80 100 39 78 70 52 39 83 100 100 100 100 98 35 32 35 25 28 33 33 35 38 41 44 47 54 52 49 57

GFSNE_500_rhum_150.txt.gz
RH
18 30 42 46 48 51 52 49 47 45 44 47 46 46 45 43 41 39 32 25 23 24 23 21 21 19 11 7 7 5 4 4 4 5 5 8 10 21
41 45 49 52 55 58 58 55 51 49 49 55 57 56 51 49 48 43 35 29 28 25 21 18 17 10 8 6 5 4 5 5 4 5 6 8 9 11
52 55 64 63 65 63 61 61 60 57 56 61 65 64 63 60 54 43 32 29 26 23 14 19 15 8 6 5 5 5 4 3 5 7 9 16 21 14
66 62 70 65 68 67 65 64 62 66 67 65 69 68 66 56 44 36 31 29 24 14 15 17 8 7 6 6 6 4 3 3 6 11 14 17 24 40
75 74 74 72 70 73 71 72 75 74 73 71 70 72 58 43 36 33 31 23 18 17 14 8 7 6 6 7 6 3 3 3 9 18 28 35 38 38
74 81 83 83 84 86 82 81 82 78 76 74 76 68 48 38 35 26 24 20 18 11 8 7 7 6 7 7 5 3 4 9 16 36 54 60 59 56
83 87 87 91 92 90 84 84 83 84 84 86 72 50 47 38 30 30 46 20 9 9 8 8 7 6 7 6 4 3 4 7 13 34 43 67 69 67
88 92 88 93 96 91 90 91 95 98 96 74 65 71 75 69 71 75 47 14 10 10 10 9 7 6 6 5 3 3 4 5 8 21 33 81 75 72
88 90 90 93 93 98 100 99 97 100 100 100 96 100 99 100 97 74 35 19 15 12 11 8 7 6 6 5 3 4 14 38 56 59 18 64 79 64
90 87 90 90 95 100 100 98 99 100 100 100 100 100 100 99 77 49 36 25 18 12 11 9 7 6 5 4 4 8 44 61 74 87 78 63 80 60
93 96 97 99 100 100 95 87 78 64 47 48 50 61 72 78 62 49 30 18 15 13 10 7 8 6 5 4 4 25 68 73 80 83 89 93 80 65
84 88 77 51 35 31 29 27 25 22 19 18 17 16 16 16 16 15 15 13 12 11 10 8 7 6 5 4 13 49 76 80 85 87 83 82 86 86
35 29 25 23 20 18 17 15 14 12 11 11 10 10 11 11 10 10 10 10 10 10 10 8 7 6 5 4 26 89 86 74 82 92 89 88 89 87
27 26 24 21 17 14 11 9 8 8 8 8 7 8 8 8 7 8 9 9 12 11 10 8 7 6 5 5 34 91 97 84 81 87 88 85 84 90
19 15 14 12 10 8 7 6 4 4 4 4 4 5 7 13 12 10 10 11 11 11 11 9 7 6 5 6 41 86 95 96 79 75 80 83 83 87
12 11 10 7 5 5 5 6 7 9 10 10 10 13 10 33 100 94 20 12 11 10 10 8 7 6 6 13 41 76 94 92 77 68 70 84 88 89
9 7 6 9 12 13 13 13 13 15 17 18 17 19 18 99 100 100 98 31 11 10 10 9 7 6 10 36 77 100 98 90 89 74 71 80 80 70
8 13 20 20 19 21 24 30 25 22 26 54 50 25 24 76 100 100 92 25 17 14 11 10 12 8 66 100 100 100 97 99 86 83 76 70 47 34
21 35 30 50 72 70 94 82 42 43 46 94 100 90 49 100 100 100 100 25 30 25 24 18 41 97 100 100 100 100 100 93 86 73 48 28 22 21
37 35 52 81 95 87 94 98 56 84 69 100 100 88 49 100 100 87 49 100 95 57 35 87 100 100 100 100 100 99 90 58 28 22 20 18 21 34
37 47 82 92 100 100 100 100 66 100 89 100 100 97 82 100 73 92 100 100 91 54 99 100 98 100 100 100 89 54 29 27 27 26 27 23 25 24
39 82 97 100 96 100 100 100 58 98 97 100 96 95 62 96 100 100 100 100 71 99 100 99 100 100 100 47 38 49 30 22 23 25 29 33 34 35
75 94 100 100 100 100 100 72 42 81 100 95 92 100 100 100 100 100 100 74 100 100 100 100 100 82 33 34 31 33 44 39 24 21 22 22 22 22

GFSNE_500_rhum_153.txt.gz
RH
10 19 32 43 46 50 53 54 49 42 43 58 54 57 54 53 53 54 57 60 59 56 54 51 47 38 31 28 25 24 22 18 14 11 12 11 9 6
30 44 50 52 57 62 63 61 56 49 31 51 54 56 59 60 61 63 63 65 66 64 61 53 40 31 28 26 24 23 20 16 13 13 11 6 3 3
48 54 60 62 67 68 61 59 53 54 42 50 59 61 61 76 75 68 71 70 70 68 59 43 33 30 27 24 21 21 16 13 14 10 7 3 3 3
58 63 70 70 69 67 62 58 64 68 59 54 61 72 73 80 79 74 76 80 76 62 51 37 33 28 17 19 20 12 11 12 12 9 4 4 4 3
69 74 78 76 70 76 75 72 77 76 77 72 69 75 80 80 84 89 92 87 78 61 50 39 30 20 26 22 10 9 11 11 11 6 4 4 3 2
74 78 76 77 82 86 88 88 88 84 84 84 79 76 77 91 94 99 95 94 88 76 73 62 30 38 45 10 10 10 11 11 10 4 4 4 3 3
73 76 78 82 91 97 92 92 92 90 88 86 83 83 79 92 100 100 97 95 91 90 87 73 59 76 29 14 12 12 12 11 10 4 4 4 2 3
70 76 81 87 96 100 100 100 100 95 91 91 91 93 99 100 100 100 94 94 95 100 96 92 97 78 40 23 17 14 13 10 7 4 4 3 3 3
83 86 88 93 99 100 100 100 100 100 100 100 91 85 87 93 91 91 93 91 98 100 100 100 99 81 52 34 23 15 13 8 6 4 4 3 6 12
81 78 80 85 91 91 87 82 80 78 63 51 40 38 35 33 31 32 29 29 30 36 47 64 90 85 74 54 25 15 12 8 6 4 4 5 23 45
75 77 72 60 46 38 37 34 32 30 28 26 24 22 20 18 18 18 17 17 17 17 19 21 23 28 28 22 19 14 12 8 6 5 4 13 38 49
56 50 47 45 43 38 32 26 22 19 17 17 16 14 12 11 10 10 11 12 12 12 13 15 16 17 16 17 16 14 11 8 6 5 4 24 60 71
45 36 27 20 16 13 11 10 9 9 8 8 7 7 6 7 8 7 8 8 10 10 11 12 13 14 15 15 15 13 11 8 6 5 7 51 68 69
16 14 12 12 11 11 10 9 7 6 6 5 5 5 5 6 6 7 8 43 33 33 21 15 13 13 14 13 13 12 11 8 6 5 12 60 76 81
13 13 13 13 11 8 6 7 10 12 13 13 12 10 10 10 12 14 15 96 78 100 100 81 30 15 12 11 11 11 10 8 6 5 13 62 81 87
12 11 10 7 7 9 15 18 22 22 27 32 32 26 16 15 17 23 37 100 100 100 100 93 52 16 12 10 10 10 9 7 7 6 25 62 86 100
10 8 6 9 15 23 24 31 44 68 80 80 67 40 27 28 35 85 100 58 100 100 100 100 78 36 16 13 11 12 11 12 17 13 51 70 90 95
5 8 13 21 26 27 35 58 82 90 87 89 64 52 54 95 97 98 100 98 100 100 100 98 80 28 21 20 23 25 29 76 58 45 73 84 90 93
10 21 32 35 38 42 54 85 90 100 100 100 75 98 95 100 100 92 91 100 100 100 100 81 88 34 38 56 74 67 100 100 100 90 88 91 99 98
34 40 43 45 37 54 94 100 96 96 100 100 80 100 100 100 100 93 100 100 100 100 96 98 90 100 81 62 96 100 100 90 87 96 98 95 88 62
41 40 35 34 65 86 100 100 100 100 100 99 84 100 98 100 100 77 100 100 94 79 82 99 100 96 86 100 100 99 86 89 96 97 76 40 24 22
24 35 78 93 100 100 100 100 100 100 96 56 95 100 100 97 100 86 88 85 97 100 100 100 97 99 100 100 100 96 93 92 66 37 32 28 26 28
76 91 92 96 100 100 100 100 100 100 100 48 97 100 90 96 91 100 100 100 100 100 100 97 100 100 100 100 100 97 74 47 34 30 34 32 30 26

GFSNE_500_rhum_156.txt.gz
RH
9 9 10 10 13 22 38 46 45 43 46 69 49 49 56 55 49 45 47 47 49 53 53 52 57 60 65 67 65 62 55 42 32 29 26 21 22 20
9 11 12 13 23 40 52 58 60 47 26 51 61 57 51 63 68 64 61 57 56 55 58 58 58 65 69 72 71 64 51 36 30 26 24 21 21 16
11 14 23 38 51 57 60 64 64 61 38 40 50 59 60 56 67 76 76 72 69 69 68 67 68 69 72 77 73 61 40 32 29 24 17 37 21 14
26 47 58 60 62 67 69 67 63 65 57 49 57 63 70 81 76 72 79 82 78 79 78 74 76 86 90 84 68 51 39 35 27 18 51 28 11 16
58 60 62 64 65 66 66 65 68 68 69 68 68 75 78 85 90 89 91 89 81 80 88 98 100 100 98 87 70 57 55 68 38 32 45 11 12 19
62 63 64 67 72 76 78 79 78 74 76 75 70 74 81 89 95 98 92 93 97 100 98 99 100 100 98 92 88 75 75 70 38 75 19 13 15 20
67 76 81 84 88 83 78 78 81 81 73 63 56 59 64 68 74 79 79 84 80 90 95 95 98 100 100 100 99 97 94 83 68 84 32 19 22 20
69 68 70 65 58 54 55 61 65 61 58 59 53 49 48 47 44 44 47 53 56 62 72 75 83 85 100 100 100 98 95 91 96 91 49 34 32 19
45 40 39 46 46 49 54 55 56 52 49 48 46 44 41 38 36 35 33 31 29 27 28 36 41 43 47 58 80 95 98 100 100 94 67 45 39 19
29 31 33 36 45 48 50 46 38 30 23 19 16 15 14 13 12 11 12 13 16 19 21 22 21 21 24 26 31 42 61 83 91 87 78 66 37 16
26 33 32 27 18 14 13 13 13 12 12 12 12 12 12 11 10 10 9 9 8 8 9 11 13 12 16 19 20 22 29 30 42 50 48 35 21 14
20 17 16 15 17 20 19 15 11 10 9 9 9 8 7 6 7 7 7 7 7 6 7 8 9 10 12 13 15 16 18 20 24 26 24 22 18 13
21 21 22 24 25 19 12 11 9 8 6 6 7 8 9 11 13 13 13 12 12 11 9 10 9 11 14 17 14 14 17 18 19 20 20 20 17 11
27 28 30 24 15 13 10 6 5 7 10 13 20 22 23 21 22 26 22 17 14 14 16 20 35 100 100 100 62 55 33 17 14 15 15 14 13 10
33 26 18 16 14 7 5 6 10 17 27 32 29 32 71 73 76 58 38 28 24 20 25 29 97 100 97 93 74 41 23 17 13 12 12 12 10 9
24 19 16 10 4 5 8 20 33 40 37 40 44 77 84 96 99 57 34 42 48 58 32 84 100 100 100 100 92 61 32 18 16 13 10 9 8 8
19 13 6 5 7 16 28 38 45 46 51 62 91 93 86 92 100 72 66 100 86 89 97 100 100 90 100 99 97 59 30 22 25 21 15 11 10 8
8 5 6 10 22 27 31 35 41 42 90 100 100 100 100 100 96 75 98 100 100 100 100 100 97 100 100 88 96 72 43 29 25 22 17 13 11 14
6 7 11 18 23 23 25 34 59 94 100 100 98 100 100 100 84 100 100 100 100 100 94 100 100 100 90 95 100 67 48 70 75 59 33 23 55 77
8 13 16 19 26 54 83 98 100 100 100 100 100 100 100 80 99 100 99 100 100 100 100 96 100 100 97 98 98 100 100 98 82 87 97 100 100 100
13 15 21 60 89 96 95 98 100 100 100 100 100 100 81 82 100 100 100 100 100 100 95 99 95 82 81 89 99 100 100 96 94 100 100 100 100 100
20 52 62 72 78 94 100 100 86 100 100 100 100 92 66 95 100 100 100 87 100 87 81 71 95 100 100 100 100 100 94 97 100 100 100 100 100 100
75 90 92 98 100 100 100 100 100 100 100 100 75 52 90 93 76 92 97 92 81 81 99 100 100 100 100 100 100 100 100 100 100 100 100 97 72 59

GFSNE_500_rhum_159.txt.gz
RH
6 9 10 10 9 8 8 9 10 17 38 58 54 63 60 60 67 63 58 54 53 55 54 55 54 55 54 52 50 48 48 51 56 65 68 67 59 45
8 12 12 12 13 18 30 44 47 40 27 47 61 62 64 62 63 63 67 70 68 65 65 66 64 63 62 63 62 62 62 61 66 69 71 72 67 45
12 15 26 38 51 55 53 50 48 46 34 36 44 57 62 66 68 68 72 76 81 84 82 80 77 78 77 74 73 72 72 73 77 80 80 74 56 38
39 55 59 56 57 54 52 52 53 56 51 42 45 49 52 65 66 68 66 66 73 90 97 90 88 89 87 84 82 83 86 88 94 96 90 68 42 35
55 52 52 52 51 50 49 45 43 39 36 30 27 28 27 30 38 53 65 66 60 69 88 98 96 89 89 89 89 94 97 100 97 96 97 76 49 47
57 57 56 52 49 45 40 35 30 26 23 18 13 11 12 15 16 21 30 46 47 48 48 55 64 68 68 70 74 87 96 98 100 99 99 99 89 71
60 56 52 44 37 30 24 19 15 12 11 10 8 8 9 13 16 21 22 25 34 48 48 46 43 41 47 62 73 88 99 100 100 100 100 100 98 95
51 42 33 27 19 11 11 15 14 13 14 15 14 15 14 13 13 12 12 11 10 12 15 26 36 38 36 34 35 50 63 81 100 100 100 100 100 95
30 23 14 7 7 10 15 18 20 19 17 17 16 16 18 22 22 19 15 12 11 11 11 11 12 12 16 24 30 29 29 36 48 66 80 99 100 100
11 6 4 5 13 17 18 21 24 24 24 24 25 27 28 22 15 13 12 11 10 9 10 9 9 9 11 12 12 15 21 24 25 31 41 56 73 87
7 8 11 13 20 27 33 33 31 31 30 26 21 18 16 12 8 8 8 9 9 9 9 9 8 8 9 8 10 11 12 14 16 20 24 29 35 49
8 16 26 34 37 34 29 26 24 23 20 16 11 6 5 6 8 12 15 17 18 15 14 16 13 12 9 7 8 9 11 13 12 14 16 20 23 27
19 26 29 27 23 22 25 26 22 14 8 5 5 5 7 10 18 27 33 35 42 36 38 49 28 17 13 12 13 13 13 15 83 16 14 15 17 19
26 30 29 23 23 26 22 14 6 5 5 7 11 20 28 34 38 38 47 92 84 81 65 38 29 24 19 17 19 36 100 100 100 100 52 31 20 20
35 32 22 24 24 17 8 6 6 8 13 20 27 36 43 47 49 84 94 92 82 94 65 43 40 50 75 61 32 99 100 100 100 100 98 81 48 27
22 18 24 21 12 6 6 8 14 20 23 27 34 43 47 80 97 99 95 100 98 83 100 100 100 98 96 100 78 100 100 100 100 100 100 81 38 25
18 20 17 8 5 6 9 13 16 21 26 32 52 90 100 96 98 98 100 100 82 85 100 100 90 100 100 100 88 92 83 100 100 98 74 55 34 26
20 12 6 6 7 9 12 20 42 64 90 95 100 100 100 100 100 100 100 92 100 92 100 100 100 100 92 100 100 100 100 100 100 88 57 46 29 23
8 6 7 8 11 24 44 78 93 98 95 100 99 100 100 100 100 99 82 93 100 98 100 100 97 83 86 95 100 96 100 100 98 75 43 41 47 72
7 8 9 14 57 68 67 72 84 99 100 100 100 100 100 100 100 75 98 99 100 100 100 100 90 100 88 88 99 100 100 98 96 88 100 100 100 98
9 11 29 71 81 85 94 100 100 100 100 100 100 100 100 95 67 78 96 100 100 99 100 100 100 98 95 78 76 81 90 100 100 100 100 100 100 100
15 53 84 92 97 98 100 100 100 98 97 96 95 84 63 52 72 73 72 100 91 92 94 95 84 74 88 97 100 100 100 100 100 100 100 100 100 100
82 84 89 86 71 54 52 60 72 74 67 57 41 29 35 51 68 80 91 84 83 76 73 76 93 100 100 100 100 100 100 100 100 100 100 100 100 100

GFSNE_500_rhum_165.txt.gz
RH
14 11 6 5 6 11 23 31 28 24 31 53 49 57 52 49 45 39 38 39 39 40 40 40 38 37 34 32 33 35 36 37 39 44 48 51 53 54
13 8 6 6 13 30 38 38 38 37 27 31 46 50 53 52 50 46 43 40 37 34 30 27 26 26 26 26 26 27 33 42 47 52 60 64 67 70
9 6 8 24 46 49 48 50 49 45 37 37 35 33 32 29 27 24 23 22 21 19 18 16 13 12 14 15 16 20 26 36 48 62 73 78 81 85
7 19 48 54 56 57 55 54 50 44 31 21 19 19 18 19 20 19 14 10 8 8 9 8 8 6 7 11 14 17 22 30 36 44 52 63 84 90
41 56 58 60 60 56 46 34 28 25 23 20 18 19 19 16 16 14 16 17 14 13 13 11 11 13 16 21 25 29 34 36 35 40 46 54 67 78
63 62 59 52 42 31 26 24 23 21 20 18 17 16 18 22 23 21 20 19 18 13 12 17 26 28 28 27 25 23 20 18 18 20 29 40 48 52
63 52 39 30 24 21 17 16 15 16 18 22 24 24 23 21 18 15 12 11 9 10 11 18 28 37 38 38 35 32 29 26 23 19 17 15 15 21
38 30 24 22 20 18 17 18 22 25 26 24 22 20 18 18 16 14 12 9 6 15 22 22 24 20 20 24 27 30 32 33 32 31 29 24 20 20
21 18 17 17 18 20 24 26 27 25 23 20 14 10 7 14 16 18 18 14 11 13 21 20 21 20 21 21 21 21 20 21 20 20 20 20 21 22
17 18 18 22 25 25 24 25 22 17 9 5 6 8 13 20 25 25 22 21 19 16 12 11 9 8 7 7 7 6 7 7 6 6 7 9 12 13
21 23 24 25 26 23 15 7 4 2 4 8 15 22 26 24 18 12 10 9 7 7 8 9 10 10 12 15 21 25 26 28 25 16 10 7 6 6
20 23 24 21 10 4 2 3 4 6 8 12 17 15 9 8 8 8 8 8 10 10 27 25 33 40 30 40 42 47 55 64 52 39 24 19 17 12
25 26 15 5 3 3 5 7 8 9 8 7 6 6 7 8 9 12 15 17 21 29 45 47 48 57 69 50 69 78 84 79 52 36 27 23 22 21
25 12 4 3 4 6 9 10 7 5 4 5 8 9 10 14 26 47 61 65 77 80 93 99 91 95 87 74 72 92 89 77 50 33 25 25 25 30
7 4 4 5 8 9 8 5 4 6 8 10 12 26 39 67 82 87 90 99 96 100 100 100 100 99 95 74 57 86 87 100 100 99 91 100 50 36
3 4 5 6 8 7 4 6 8 11 20 38 70 76 69 72 79 88 96 100 100 100 100 100 100 95 72 100 93 92 100 100 100 98 100 96 80 100
4 4 7 9 7 5 9 22 45 61 79 93 97 100 100 100 100 100 100 100 100 100 100 88 99 100 96 86 88 93 94 100 100 98 100 100 100 99
7 11 11 7 6 13 19 21 30 31 35 41 56 71 85 94 96 100 100 100 100 100 85 95 98 96 99 83 96 95 100 100 98 93 100 100 100 92
17 13 7 9 25 24 11 10 10 12 11 15 21 30 42 57 64 63 57 45 47 62 86 88 87 100 87 95 90 78 100 100 100 100 74 91 100 100
14 8 12 35 36 24 11 9 9 10 10 11 13 16 18 18 17 18 21 29 49 66 82 58 81 85 74 80 90 99 100 100 100 100 100 100 100 100
8 11 41 48 50 35 17 11 10 9 9 9 10 10 12 13 16 18 25 30 37 42 44 62 77 82 83 91 91 80 71 83 92 96 96 99 100 100
9 38 59 81 81 68 32 13 11 10 9 10 11 12 12 14 15 19 23 27 37 33 37 52 60 65 65 69 74 86 76 71 70 67 69 67 67 69
29 72 67 92 90 93 85 23 12 11 11 11 10 12 17 24 32 35 40 44 47 49 56 63 71 81 88 96 100 100 100 100 100 100 100 97 100 100

GFSNE_500_rhum_171.txt.gz
RH
27 24 24 26 26 24 20 13 8 6 6 40 53 54 46 39 31 25 20 17 15 13 11 10 9 8 8 9 11 13 13 15 16 18 19 20 22 25
26 25 26 26 24 20 12 9 10 18 25 37 36 29 21 17 16 14 14 13 12 12 12 12 12 12 11 11 10 10 11 12 14 16 17 18 18 18
25 26 26 25 19 11 14 35 42 40 33 24 17 14 11 9 9 8 8 8 8 9 9 10 11 12 14 14 15 16 16 16 15 15 15 16 15 13
27 26 24 16 13 40 47 42 32 20 15 11 8 8 7 7 8 7 7 8 7 8 9 11 13 15 17 18 19 21 21 21 19 18 16 16 16 14
26 23 14 36 52 44 31 19 13 9 8 8 8 8 7 7 7 7 6 6 6 7 10 11 12 13 14 18 21 22 24 24 24 22 21 19 18 20
19 20 47 47 34 20 13 10 9 9 9 8 8 8 8 6 5 5 4 4 4 4 4 4 4 4 4 4 5 5 7 8 10 12 16 24 27 29
39 50 35 20 13 10 9 9 9 9 8 9 8 7 6 4 3 3 2 2 3 3 3 3 4 4 7 10 11 12 14 15 16 15 13 15 27 40
39 20 13 10 11 10 10 10 9 10 9 8 6 4 3 2 2 3 3 3 4 6 6 6 6 6 6 6 6 7 8 10 13 16 20 23 24 24
16 11 11 10 10 10 10 10 10 9 7 4 3 3 3 3 4 5 6 6 5 4 4 5 5 6 7 9 9 10 9 8 8 8 7 7 8 11
12 11 10 10 12 13 12 10 9 6 3 3 4 5 7 7 6 4 4 4 10 14 12 12 17 24 33 39 40 36 29 22 18 16 14 13 12 10
11 12 13 14 14 12 11 9 5 3 3 5 7 9 7 5 5 5 6 7 19 41 46 40 57 65 74 73 75 73 73 75 72 58 41 40 35 27
16 18 17 14 13 12 8 6 3 3 5 7 8 6 6 7 6 6 6 6 13 47 82 65 80 82 79 84 93 94 83 90 88 86 88 76 63 48
20 19 16 15 12 8 5 4 4 5 8 7 5 5 7 7 6 6 6 7 8 21 46 42 64 83 89 82 89 100 94 80 76 80 72 68 72 78
20 17 16 13 8 5 4 5 8 9 6 5 6 6 5 5 6 6 7 8 10 12 23 42 56 70 83 88 66 83 93 76 69 71 65 63 61 56
20 18 14 8 5 4 5 9 10 7 6 8 9 7 5 5 5 6 7 8 10 10 12 17 27 47 54 62 70 67 74 100 98 99 100 100 100 99
20 13 7 4 4 4 8 11 7 7 11 12 9 7 6 6 7 8 9 10 11 12 13 21 33 46 59 68 85 88 93 90 100 100 100 99 94 95
14 8 4 3 4 8 12 7 6 13 22 16 9 8 8 8 9 11 13 15 18 17 18 21 26 45 59 58 74 67 65 68 84 92 92 79 100 100
11 8 5 3 6 11 9 6 16 33 45 20 10 10 10 14 23 28 29 36 42 40 35 31 31 36 48 59 60 53 49 67 82 90 84 85 94 97
9 5 3 8 13 10 7 15 29 72 75 28 12 10 14 34 43 48 49 52 58 62 61 51 46 44 47 61 71 72 70 61 62 76 88 94 79 79
4 3 8 13 11 9 13 39 60 92 91 38 18 19 43 60 69 71 72 74 76 78 77 77 76 72 65 61 62 64 61 57 49 45 50 66 88 89
3 8 15 12 11 14 53 62 78 93 90 50 46 67 74 76 78 80 80 78 80 81 81 80 84 82 87 89 90 93 95 98 99 99 97 84 52 59
7 18 14 13 12 44 80 73 83 96 96 76 79 80 80 79 80 80 69 62 52 44 45 44 48 59 63 73 85 91 98 96 96 99 100 100 100 97
23 16 20 13 43 61 69 74 84 99 98 92 80 78 81 78 76 57 31 28 29 30 32 35 34 38 44 49 55 61 66 76 79 86 90 100 100 100